TimeEST,TemperatureF,Dew PointF,Humidity,Sea Level PressureIn,VisibilityMPH,Wind Direction,Wind SpeedMPH,Gust SpeedMPH,PrecipitationIn,Events,Conditions,WindDirDegrees,DateUTC
12:55 AM,27.1,-1.1,30,30.12,10.0,NW,15.0,-,N/A,,Mostly Cloudy,310,2014-01-28 05:55:00
1:55 AM,25.9,-0.0,33,30.14,10.0,NW,15.0,23.0,N/A,,Overcast,310,2014-01-28 06:55:00
2:55 AM,24.8,0.7,35,30.12,10.0,NW,10.4,-,N/A,,Partly Cloudy,310,2014-01-28 07:55:00
3:55 AM,24.3,0.9,36,30.12,10.0,WNW,12.7,-,N/A,,Scattered Clouds,300,2014-01-28 08:55:00
4:55 AM,24.1,1.4,38,30.13,10.0,NW,10.4,-,N/A,,Mostly Cloudy,320,2014-01-28 09:55:00
5:58 AM,23.0,1.4,39,30.14,10.0,NW,15.0,21.9,N/A,,Mostly Cloudy,310,2014-01-28 10:58:00
6:58 AM,23.4,1.4,39,30.17,10.0,NW,10.4,17.3,N/A,,Overcast,320,2014-01-28 11:58:00
7:58 AM,23.7,1.4,38,30.21,10.0,NW,9.2,-,N/A,,Overcast,320,2014-01-28 12:58:00
8:58 AM,23.9,1.9,39,30.21,10.0,NW,10.4,-,N/A,,Overcast,320,2014-01-28 13:58:00
9:58 AM,24.6,3.0,40,30.25,10.0,NNW,12.7,-,N/A,,Overcast,330,2014-01-28 14:58:00
10:02 AM,24.8,5.0,43,30.21,10.0,NW,9.2,17.3,N/A,Snow,Light Snow,320,2014-01-28 15:02:00
10:25 AM,24.8,10.4,54,30.20,10.0,NNW,9.2,-,N/A,Snow,Light Snow,330,2014-01-28 15:25:00
10:51 AM,23.0,12.2,63,30.20,10.0,NW,6.9,-,N/A,,Scattered Clouds,320,2014-01-28 15:51:00
10:58 AM,23.9,12.2,61,30.24,10.0,NW,9.2,-,0.00,,Scattered Clouds,320,2014-01-28 15:58:00
11:02 AM,24.8,12.2,59,30.20,10.0,NW,6.9,-,N/A,,Scattered Clouds,320,2014-01-28 16:02:00
11:19 AM,23.0,14.0,68,30.19,10.0,NW,10.4,-,N/A,Snow,Light Snow,320,2014-01-28 16:19:00
11:58 AM,23.0,17.6,80,30.20,5.0,NW,9.2,-,0.00,Snow,Light Snow,310,2014-01-28 16:58:00
12:08 PM,23.0,19.4,86,30.21,3.0,NNW,8.1,-,N/A,Snow,Light Snow,330,2014-01-28 17:08:00
12:18 PM,23.0,19.4,86,30.21,3.0,NW,4.6,-,N/A,Snow,Light Snow,310,2014-01-28 17:18:00
12:23 PM,23.0,19.4,86,30.20,1.8,NW,3.5,-,N/A,Snow,Light Snow,310,2014-01-28 17:23:00
12:28 PM,23.0,19.4,86,30.20,1.5,WNW,5.8,-,N/A,Snow,Light Snow,300,2014-01-28 17:28:00
12:38 PM,23.0,21.2,93,30.21,1.2,WNW,5.8,-,N/A,Snow,Light Snow,300,2014-01-28 17:38:00
12:58 PM,23.0,21.2,93,30.19,1.2,NW,4.6,-,0.01,Snow,Light Snow,310,2014-01-28 17:58:00
1:13 PM,23.0,21.2,93,30.17,1.2,NW,5.8,-,N/A,Snow,Light Snow,310,2014-01-28 18:13:00
1:18 PM,23.0,21.2,93,30.17,1.5,NW,5.8,-,N/A,Snow,Light Snow,320,2014-01-28 18:18:00
1:23 PM,23.0,21.2,93,30.17,1.8,WNW,4.6,-,N/A,Snow,Light Snow,300,2014-01-28 18:23:00
1:28 PM,23.0,21.2,93,30.16,1.5,WNW,5.8,-,N/A,Snow,Light Snow,300,2014-01-28 18:28:00
1:33 PM,23.0,21.2,93,30.16,1.8,NNW,9.2,-,N/A,Snow,Light Snow,330,2014-01-28 18:33:00
1:38 PM,23.0,19.4,86,30.16,2.0,NW,8.1,-,N/A,Snow,Light Snow,310,2014-01-28 18:38:00
1:43 PM,23.0,19.4,86,30.16,1.2,WNW,8.1,-,N/A,Snow,Light Snow,300,2014-01-28 18:43:00
1:48 PM,23.0,19.4,86,30.16,1.2,NW,8.1,-,N/A,Snow,Light Snow,320,2014-01-28 18:48:00
1:53 PM,23.0,19.4,86,30.16,1.8,NNW,8.1,-,N/A,Snow,Light Snow,330,2014-01-28 18:53:00
1:58 PM,22.6,19.9,89,30.15,2.0,NW,10.4,-,0.02,Snow,Light Snow,320,2014-01-28 18:58:00
2:03 PM,23.0,19.4,86,30.15,1.8,NW,9.2,-,N/A,Snow,Light Snow,320,2014-01-28 19:03:00
2:08 PM,23.0,19.4,86,30.15,2.0,NW,9.2,-,N/A,Snow,Light Snow,320,2014-01-28 19:08:00
2:18 PM,23.0,19.4,86,30.15,2.0,NW,5.8,-,N/A,Snow,Light Snow,320,2014-01-28 19:18:00
2:23 PM,23.0,19.4,86,30.15,2.5,NW,9.2,-,N/A,Snow,Light Snow,320,2014-01-28 19:23:00
2:28 PM,23.0,19.4,86,30.15,2.5,NW,9.2,-,N/A,Snow,Light Snow,310,2014-01-28 19:28:00
2:33 PM,23.0,19.4,86,30.15,2.0,NW,9.2,-,N/A,Snow,Light Snow,310,2014-01-28 19:33:00
2:48 PM,23.0,19.4,86,30.15,1.8,NW,8.1,-,N/A,Snow,Light Snow,310,2014-01-28 19:48:00
2:58 PM,23.0,19.4,86,30.14,1.5,NW,10.4,-,0.02,Snow,Light Snow,310,2014-01-28 19:58:00
3:03 PM,21.2,19.4,93,30.14,1.2,NW,9.2,-,N/A,Snow,Light Snow,310,2014-01-28 20:03:00
3:08 PM,21.2,19.4,93,30.14,1.0,NW,6.9,-,N/A,Snow,Light Snow,310,2014-01-28 20:08:00
3:13 PM,21.2,19.4,93,30.14,1.0,WNW,8.1,-,N/A,Snow,Light Snow,300,2014-01-28 20:13:00
3:18 PM,21.2,19.4,93,30.14,1.0,WNW,8.1,-,N/A,Snow,Light Snow,300,2014-01-28 20:18:00
3:23 PM,21.2,19.4,93,30.14,1.2,WNW,8.1,-,N/A,Snow,Light Snow,300,2014-01-28 20:23:00
3:28 PM,21.2,19.4,93,30.14,1.2,NW,8.1,-,N/A,Snow,Light Snow,320,2014-01-28 20:28:00
3:43 PM,21.2,19.4,93,30.14,1.5,North,5.8,-,N/A,Snow,Light Snow,350,2014-01-28 20:43:00
3:48 PM,21.2,19.4,93,30.14,1.8,NW,10.4,-,N/A,Snow,Light Snow,310,2014-01-28 20:48:00
3:53 PM,21.2,17.6,86,30.14,1.5,NW,10.4,-,N/A,Snow,Light Snow,310,2014-01-28 20:53:00
3:58 PM,21.2,18.3,89,30.14,1.2,NW,9.2,-,0.01,Snow,Light Snow,310,2014-01-28 20:58:00
4:03 PM,21.2,17.6,86,30.14,1.0,NW,10.4,-,N/A,Snow,Light Snow,320,2014-01-28 21:03:00
4:08 PM,21.2,17.6,86,30.14,1.2,NW,10.4,-,N/A,Snow,Light Snow,320,2014-01-28 21:08:00
4:13 PM,21.2,17.6,86,30.14,1.8,NW,11.5,-,N/A,Snow,Light Snow,320,2014-01-28 21:13:00
4:18 PM,21.2,17.6,86,30.14,1.5,NW,10.4,-,N/A,Snow,Light Snow,320,2014-01-28 21:18:00
4:23 PM,21.2,17.6,86,30.14,1.2,NW,9.2,-,N/A,Snow,Light Snow,310,2014-01-28 21:23:00
4:28 PM,21.2,17.6,86,30.14,1.5,NW,6.9,-,N/A,Snow,Light Snow,320,2014-01-28 21:28:00
4:33 PM,21.2,17.6,86,30.14,1.5,NW,10.4,-,N/A,Snow,Light Snow,320,2014-01-28 21:33:00
4:38 PM,21.2,17.6,86,30.14,1.8,WNW,12.7,-,N/A,Snow,Light Snow,300,2014-01-28 21:38:00
4:53 PM,21.2,17.6,86,30.14,2.0,NW,5.8,-,N/A,Snow,Light Snow,310,2014-01-28 21:53:00
4:58 PM,20.8,17.6,87,30.14,2.0,NW,4.6,-,0.01,Snow,Light Snow,320,2014-01-28 21:58:00
5:03 PM,21.2,17.6,86,30.14,1.8,NNW,6.9,-,N/A,Snow,Light Snow,330,2014-01-28 22:03:00
5:08 PM,21.2,17.6,86,30.14,2.0,NW,6.9,-,N/A,Snow,Light Snow,320,2014-01-28 22:08:00
5:13 PM,21.2,17.6,86,30.13,2.5,NNW,8.1,-,N/A,Snow,Light Snow,330,2014-01-28 22:13:00
5:18 PM,21.2,17.6,86,30.14,2.5,NW,4.6,-,N/A,Snow,Light Snow,320,2014-01-28 22:18:00
5:28 PM,21.2,17.6,86,30.14,3.0,NW,10.4,-,N/A,Snow,Light Snow,310,2014-01-28 22:28:00
5:43 PM,21.2,17.6,86,30.14,5.0,NW,9.2,-,N/A,Snow,Light Snow,320,2014-01-28 22:43:00
5:58 PM,20.7,17.1,86,30.20,5.0,NW,9.2,-,0.00,Snow,Light Snow,310,2014-01-28 22:58:00
6:28 PM,21.2,17.6,86,30.15,6.0,NW,11.5,-,N/A,Snow,Light Snow,320,2014-01-28 23:28:00
6:58 PM,20.7,16.7,85,30.22,5.0,NW,15.0,-,0.00,Snow,Light Snow,310,2014-01-28 23:58:00
7:13 PM,19.4,15.8,86,30.17,5.0,NW,10.4,19.6,N/A,Snow,Light Snow,320,2014-01-29 00:13:00
7:23 PM,19.4,15.8,86,30.17,6.0,NW,11.5,19.6,N/A,Snow,Light Snow,310,2014-01-29 00:23:00
7:38 PM,19.4,15.8,86,30.17,7.0,NW,12.7,-,N/A,Snow,Light Snow,320,2014-01-29 00:38:00
7:43 PM,19.4,15.8,86,30.17,7.0,NW,10.4,-,N/A,Snow,Light Snow,320,2014-01-29 00:43:00
7:51 PM,19.4,15.8,86,30.17,8.0,NW,10.4,-,N/A,,Overcast,320,2014-01-29 00:51:00
7:56 PM,19.4,15.8,86,30.17,8.0,NW,11.5,-,N/A,,Overcast,320,2014-01-29 00:56:00
7:58 PM,19.9,15.1,81,30.22,8.0,NW,9.2,-,0.00,,Overcast,310,2014-01-29 00:58:00
8:33 PM,19.4,15.8,86,30.18,9.0,Variable,5.8,-,N/A,,Overcast,0,2014-01-29 01:33:00
8:48 PM,19.4,15.8,86,30.18,9.0,NW,9.2,-,N/A,,Overcast,320,2014-01-29 01:48:00
8:58 PM,20.1,14.9,80,30.23,9.0,NW,6.9,-,N/A,,Overcast,320,2014-01-29 01:58:00
9:43 PM,19.4,15.8,86,30.18,10.0,NW,6.9,-,N/A,,Overcast,310,2014-01-29 02:43:00
9:58 PM,21.2,15.8,80,30.24,10.0,NW,4.6,-,N/A,,Mostly Cloudy,310,2014-01-29 02:58:00
10:22 PM,21.2,15.8,80,30.20,10.0,WNW,10.4,-,N/A,,Overcast,300,2014-01-29 03:22:00
10:58 PM,20.1,14.9,80,30.25,10.0,NW,11.5,-,N/A,,Overcast,310,2014-01-29 03:58:00
11:58 PM,19.8,14.4,80,30.25,10.0,NW,11.5,-,N/A,,Overcast,310,2014-01-29 04:58:00